Total_Precipitation_Accumulation
0.07 0.07 0.14 0.15 0.11 0.08 0.09 0.12 0.14 0.13 0.12 0.10 0.09 0.07 0.05 0.04 0.03 0.03 0.03 0.03 0.04 0.05 0.05 0.05 0.06 0.06 0.06 0.07 0.08 0.10 0.09 0.11 0.18 0.25 0.34 0.37 0.44 0.55 0.70 0.80 0.80 0.62 0.47
0.02 0.04 0.12 0.15 0.12 0.10 0.10 0.12 0.13 0.13 0.12 0.11 0.09 0.08 0.06 0.05 0.04 0.04 0.03 0.04 0.05 0.05 0.05 0.06 0.06 0.05 0.05 0.05 0.06 0.07 0.10 0.16 0.29 0.43 0.56 0.54 0.62 0.66 0.67 0.63 0.71 0.55 0.42
0.02 0.02 0.07 0.16 0.15 0.12 0.10 0.11 0.12 0.12 0.11 0.11 0.09 0.08 0.06 0.05 0.05 0.04 0.04 0.05 0.04 0.05 0.06 0.06 0.06 0.05 0.05 0.05 0.06 0.08 0.12 0.23 0.38 0.62 0.89 0.73 0.54 0.68 0.63 0.59 0.58 0.38 0.29
0.02 0.01 0.02 0.09 0.15 0.14 0.12 0.13 0.12 0.11 0.10 0.09 0.08 0.07 0.06 0.05 0.04 0.04 0.04 0.05 0.05 0.06 0.05 0.06 0.05 0.04 0.04 0.05 0.06 0.09 0.16 0.28 0.43 0.67 1.03 0.72 0.34 0.43 0.47 0.38 0.37 0.26 0.23
0.03 0.02 0.04 0.08 0.11 0.14 0.14 0.13 0.12 0.11 0.10 0.08 0.07 0.06 0.05 0.04 0.04 0.05 0.05 0.06 0.07 0.07 0.08 0.06 0.05 0.04 0.04 0.04 0.05 0.09 0.17 0.29 0.47 0.60 0.69 0.71 0.69 0.42 0.33 0.27 0.27 0.25 0.20
0.05 0.03 0.05 0.09 0.11 0.13 0.14 0.13 0.12 0.10 0.08 0.07 0.06 0.06 0.05 0.05 0.06 0.06 0.07 0.08 0.07 0.09 0.11 0.10 0.07 0.05 0.05 0.05 0.07 0.10 0.17 0.31 0.41 0.38 0.36 0.45 0.59 0.39 0.32 0.34 0.28 0.26 0.20
0.08 0.07 0.07 0.12 0.13 0.13 0.13 0.13 0.13 0.11 0.09 0.08 0.07 0.07 0.07 0.07 0.09 0.10 0.10 0.11 0.11 0.12 0.14 0.14 0.12 0.09 0.07 0.07 0.08 0.10 0.18 0.34 0.40 0.41 0.38 0.45 0.53 0.36 0.48 0.64 0.51 0.39 0.27
0.19 0.10 0.10 0.15 0.16 0.16 0.15 0.16 0.16 0.14 0.12 0.11 0.10 0.10 0.10 0.11 0.13 0.15 0.16 0.17 0.18 0.19 0.19 0.19 0.16 0.14 0.12 0.10 0.11 0.13 0.21 0.28 0.33 0.48 0.48 0.47 0.38 0.33 0.57 0.81 0.75 0.64 0.50
0.34 0.17 0.11 0.10 0.12 0.15 0.19 0.20 0.19 0.18 0.16 0.15 0.14 0.14 0.14 0.14 0.15 0.17 0.20 0.21 0.22 0.24 0.25 0.23 0.23 0.21 0.20 0.16 0.15 0.18 0.24 0.31 0.37 0.59 0.59 0.51 0.38 0.40 0.57 0.70 0.71 0.71 0.64
0.38 0.26 0.17 0.14 0.17 0.16 0.15 0.17 0.19 0.18 0.17 0.17 0.17 0.19 0.20 0.19 0.21 0.24 0.26 0.28 0.30 0.30 0.30 0.31 0.33 0.34 0.32 0.26 0.23 0.25 0.28 0.25 0.29 0.52 0.74 0.61 0.49 0.62 0.76 0.74 0.78 0.83 0.75
0.53 0.40 0.27 0.24 0.21 0.23 0.22 0.23 0.30 0.29 0.30 0.30 0.34 0.34 0.40 0.48 0.55 0.61 0.52 0.52 0.52 0.57 0.59 0.59 0.60 0.62 0.58 0.42 0.39 0.48 0.41 0.27 0.47 0.69 0.96 0.67 0.59 0.77 0.95 0.96 0.92 0.86 0.83
0.62 0.56 0.48 0.37 0.32 0.33 0.36 0.42 0.63 0.67 0.75 0.79 0.87 0.86 0.91 0.85 0.73 0.62 0.66 0.82 0.88 1.03 1.14 1.25 1.34 1.18 0.95 0.79 0.92 1.18 0.63 0.45 0.61 0.79 0.96 0.80 0.82 1.06 1.19 1.17 1.02 0.86 0.81
0.79 0.63 0.65 0.57 0.52 0.56 0.65 0.68 0.80 0.91 1.05 1.13 1.10 1.19 1.28 1.12 0.93 0.83 0.95 1.16 1.26 1.42 1.52 1.83 1.98 1.46 1.41 1.55 1.58 1.51 1.10 0.96 0.91 1.21 1.26 1.27 1.31 1.50 1.50 1.44 1.32 1.11 0.96
0.94 0.87 1.00 0.95 0.87 0.85 0.87 0.94 0.88 0.86 0.93 1.06 1.15 1.20 1.36 1.26 1.15 1.18 1.21 1.27 1.50 1.66 1.89 1.92 2.05 2.06 2.08 1.98 1.92 1.86 1.70 1.44 1.33 1.63 1.96 1.95 1.84 1.82 1.90 1.75 1.51 1.39 1.28
1.21 1.22 1.24 1.23 1.36 1.34 1.25 1.16 0.92 0.89 0.85 0.88 0.98 1.04 1.32 1.52 1.49 1.60 1.42 1.38 1.25 1.56 1.93 2.15 2.21 2.36 2.45 2.41 2.10 1.85 1.76 1.59 1.38 1.53 1.84 2.05 2.11 1.98 2.01 2.01 1.74 1.61 1.58
1.60 1.66 1.63 1.63 1.68 1.68 1.52 1.34 1.16 1.01 0.93 0.87 0.96 1.14 1.59 1.76 1.66 1.73 1.68 1.58 1.36 1.51 1.85 2.21 2.30 2.52 2.48 2.50 2.00 1.75 1.68 1.67 1.45 1.34 1.47 1.82 1.83 1.74 1.74 1.90 1.95 1.91 1.84
2.02 2.10 2.15 2.19 2.06 1.99 1.85 1.54 1.28 1.05 0.90 0.97 1.15 1.35 1.64 1.80 1.89 2.07 1.96 1.65 1.49 1.68 1.87 1.91 2.03 2.49 2.33 2.26 2.06 2.03 1.97 1.76 1.55 1.42 1.38 1.47 1.47 1.60 1.61 1.65 1.83 1.96 2.04
2.45 2.73 2.86 2.81 2.79 2.71 2.33 1.95 1.66 1.45 1.31 1.37 1.44 1.39 1.37 1.53 1.72 1.89 1.63 1.32 1.48 1.76 1.90 1.81 1.82 2.19 2.22 2.20 2.16 2.07 1.96 1.76 1.53 1.44 1.40 1.30 1.26 1.12 1.29 1.50 1.70 1.85 2.08
2.90 3.31 3.61 3.77 3.47 3.09 2.52 2.05 1.65 1.63 1.58 1.53 1.43 1.24 1.10 1.03 1.08 1.20 1.03 0.98 1.21 1.48 1.49 1.32 1.45 1.71 1.80 1.87 1.83 1.62 1.43 1.25 1.13 1.11 1.07 1.01 1.10 1.09 1.12 1.21 1.49 1.66 1.95
3.17 3.56 3.81 3.93 3.47 2.84 2.43 2.18 1.84 1.63 1.50 1.43 1.26 1.03 0.84 0.78 0.75 0.83 0.82 0.79 0.88 0.92 0.94 1.10 1.25 1.40 1.29 1.36 1.30 1.09 1.05 0.91 0.84 0.81 0.70 0.70 0.78 0.79 0.83 1.02 1.24 1.16 1.49
3.57 3.99 4.03 3.72 2.94 2.36 1.96 1.74 1.51 1.32 1.15 1.00 0.89 0.78 0.69 0.69 0.64 0.64 0.61 0.63 0.69 0.69 0.68 0.83 0.95 0.96 0.79 0.95 1.03 0.81 0.66 0.59 0.57 0.57 0.52 0.51 0.53 0.58 0.71 0.91 1.04 1.03 1.01
3.39 3.49 3.31 2.82 2.14 1.65 1.32 1.12 0.91 0.77 0.67 0.60 0.53 0.52 0.53 0.54 0.54 0.53 0.50 0.48 0.49 0.52 0.54 0.60 0.71 0.72 0.63 0.74 0.84 0.77 0.57 0.50 0.45 0.34 0.37 0.38 0.38 0.49 0.56 0.69 0.89 1.08 1.07
2.99 2.57 2.10 1.73 1.32 1.12 0.93 0.75 0.59 0.48 0.39 0.34 0.31 0.32 0.34 0.33 0.33 0.33 0.32 0.32 0.34 0.39 0.42 0.49 0.57 0.60 0.54 0.52 0.63 0.73 0.57 0.43 0.39 0.34 0.34 0.36 0.43 0.47 0.51 0.66 0.77 0.98 1.14
2.24 1.74 1.40 1.20 0.98 0.80 0.69 0.63 0.51 0.39 0.36 0.32 0.29 0.27 0.26 0.23 0.23 0.23 0.21 0.21 0.22 0.25 0.33 0.35 0.44 0.55 0.54 0.44 0.47 0.55 0.55 0.51 0.44 0.39 0.37 0.35 0.40 0.43 0.49 0.56 0.70 0.88 1.01
1.14 1.14 1.12 1.03 0.97 0.82 0.68 0.62 0.53 0.37 0.31 0.31 0.31 0.29 0.28 0.27 0.24 0.23 0.22 0.21 0.21 0.21 0.24 0.28 0.36 0.46 0.52 0.47 0.44 0.50 0.59 0.57 0.49 0.45 0.38 0.39 0.43 0.37 0.46 0.59 0.70 0.79 0.88
0.60 0.68 0.75 0.70 0.78 0.80 0.70 0.58 0.50 0.42 0.35 0.32 0.29 0.26 0.24 0.24 0.26 0.25 0.25 0.26 0.26 0.26 0.26 0.26 0.28 0.33 0.45 0.53 0.53 0.51 0.56 0.56 0.46 0.43 0.35 0.32 0.40 0.39 0.52 0.70 0.76 0.83 0.89